Find Starlink 4445

NORAD ID: 53474 Int'l Des: 2022-099 Owner: SPXS Country: US Constellation: starlink operational
LEOCIRCULARRETROGRADESSO

現在のビュー

3D地球を読み込み中...

About Starlink 4445

Starlink 4445 (NORAD 53474) is a starlink constellation satellite (v1.5) launched Aug 12, 2022 by SPXS of US. It operates in LEO, CIRCULAR, RETROGRADE, SSO orbit with a mass of 300.00 kg.

次回通過

Passes for default location (London). Set your location on the main map for personalized predictions.

高度履歴

Loading altitude history...

軌道要素

1 53474U 22099K 26228.04076691 -.00000686 00000-0 -43615-4 0 9993
2 53474 97.2844 343.8040 0001600 100.2368 259.9040 15.05653915219953
Epoch: Aug 16, 2026 • Age: 9 hours

現在のステータス

高度 569.2 km
遠地点 / 近地点 N/A
速度 7.57 km/s
衛星直下点 -48.41°S, 127.4°W
打ち上げ日 Aug 12, 2022
運用期間 4 years
タイプ internet

技術仕様

分類 Payload
質量 300.00 kg
乾燥質量 275.00 kg
総質量 300.00 kg
長さ 0.20 m
直径 2.80 m
スパン 9.00 m
形状 Box + pan
製造者 SPXS
バスタイプ Starlink
フェーズステータス In Orbit
所有者/国 SPXS/US

Most Searched